Location: Arthez
(43.0833°N, 0.2500°W)
Time: 19:53:03
(UTC+00:00)

Cosmos 2322 Rocket - Pass Details

Date: 23 October 2021
Orbit: 832 x 852 km, 71.0° (Epoch: 06 December)

Event Time Altitude Azimuth Distance (km) Brightness Sun altitude
Rises 18:16:26 0° 194° (SSW) 3,361 5.6 -13.6°
Reaches altitude 10° 18:18:52 10° 192° (SSW) 2,431 4.8 -14.0°
Maximum altitude 18:24:23 67° 111° (ESE) 903 2.1 -15.1°
Drops below altitude 10° 18:29:57 10° 30° (NNE) 2,452 4.3 -16.1°
Sets 18:32:25 0° 28° (NNE) 3,392 5.1 -16.5°
Enters shadow 18:32:26 - 28° (NNE) 3,399 5.1 -16.5°
